STARLINK-5698, 55623

Orbit data source: Space-Track

STARLINK-5698, 55623 is a payload satellite owned by SpaceX/Seattle (US) in LEO that was launched on Sun, 12 Feb 2023 UTC via an FALCON 9 launch vehicle from the Air Force Eastern Test Range (AFETR). Payload-class satellites include a variety of spacecraft equipped with specific instruments for various scientific and technological missions. These include communications satellites like Starlink; space stations such as the ISS; scientific satellites like the Hubble; Earth observation satellites from companies like Planet Labs, Umbra, and HawkEye 360; GPS; miniature CubeSats for education and research; and military/defense satellites.

Loading next visibility...
Identifier
55623, 2023-020BG
Orbit
LEO
Country
Flag of USUS
Related business
Manufacturer
SpaceX/Seattle
Mission
Operational Commercial Communications
Bus & Motor
STARLINK, Unknown motor
Mass
305 kg wet, ~290 kg dry
Launch date (UTC)
2023-02-12 (3 years ago)
Launch vehicle
FALCON 9
Launch site
Air Force Eastern Test Range (AFETR)
Object type
Payload
Rocket body
Debris
Shape & HBR
Box + 1 Pan, 10.1 m
Radar Cross Section
13.562 m², Large (>1 m²)

Expand to show TLE details & history
Last TLE update: 17 hours ago

TLE from 17 hours ago
0 STARLINK-5698
1 55623U 23020BG  25340.49063632  .00000262  00000-0  34497-4 0  9996
2 55623  43.0021 137.7457 0001200 268.4390  91.6314 15.02534523155052
Epoch: 2025-12-06T11:46Z
TLE epoch observation values (Epoch: 2025-12-06T11:46:30.978Z)
Latitude
-0.00006°
Longitude
-114.40106°
Altitude
558.886 km
Speed
7.584 km/s
True Right ascension
09h 10m 58s
True Declination
0° 00' 00"
Sunlit
Object was in full shadow at epoch
Visualization orbit readout
Latitude
Unknown
Longitude
Unknown
Altitude
Unknown
Speed
Unknown
Apparent Right ascension
Unknown
Apparent Declination
Unknown
Sunlit
N/A
Visualization observer readout
Local Sidereal Time
03:08:04
Azimuth
Unknown
Elevation
Unknown
Doppler factor
Unknown
Orbital elements
Apogee altitude
561.84 km
Perigee altitude
560.175 km
Semi-major axis
6,939.145 km
Eccentricity
0.00012
Inclination
43.0021°
RAAN
137.7457°
Arg. of periapsis
268.439°
True anomaly
91.64515°
Mean anomaly
91.6314°
Eccentric anomaly
91.63827°
Mean motion
3.75478 °/min
Orbital period
95.88 mins
BSTAR
0.000034497
Loading maneuver chart data...
Computing Atmospheric mass density...
Loading historical data...
Loading historical data...
Loading historical data...
Loading historical data...
Loading historical data...
Loading historical data...
Loading historical data...

Documentation

Showing up to 5 results
|